This is the latest recevied weather packets stored in our database for station/object S56VIL-11. If no packets are shown the sender has not sent any weather packets the latest 10 day(s).
| Time | Temp. | Humidity | Pressure | Rain* | Wind** | Luminosity | Snow |
|---|---|---|---|---|---|---|---|
| 1777569889 | 9.44° C | 58% | 1034.9 hPa | - | - | - | - |
| 1777568985 | 10° C | 58% | 1034.7 hPa | - | - | - | - |
| 1777568088 | 11.67° C | 58% | 1034.8 hPa | - | - | - | - |
| 1777567192 | 13.89° C | 58% | 1034.6 hPa | - | - | - | - |
| 1777566288 | 15° C | 58% | 1034.4 hPa | - | - | - | - |
| 1777565385 | 15° C | 58% | 1034.4 hPa | - | - | - | - |
| 1777564488 | 14.44° C | 58% | 1034.3 hPa | - | - | - | - |
| 1777563584 | 13.89° C | 58% | 1034.3 hPa | - | - | - | - |
| 1777562687 | 14.44° C | 58% | 1034.3 hPa | - | - | - | - |
| 1777561784 | 13.33° C | 59% | 1034.3 hPa | - | - | - | - |
| 1777560887 | 12.78° C | 58% | 1034.3 hPa | - | - | - | - |
| 1777559984 | 13.33° C | 59% | 1034.3 hPa | - | - | - | - |
| 1777559086 | 14.44° C | 59% | 1034.4 hPa | - | - | - | - |
| 1777558183 | 18.33° C | 60% | 1034.3 hPa | - | - | - | - |
| 1777557286 | 17.22° C | 61% | 1034.4 hPa | - | - | - | - |
| 1777556383 | 15° C | 60% | 1034.4 hPa | - | - | - | - |
| 1777555486 | 13.89° C | 60% | 1034.5 hPa | - | - | - | - |
| 1777554582 | 14.44° C | 61% | 1034.6 hPa | - | - | - | - |
| 1777553685 | 13.89° C | 60% | 1034.6 hPa | - | - | - | - |
| 1777552782 | 13.33° C | 60% | 1034.8 hPa | - | - | - | - |
| 1777551885 | 13.33° C | 61% | 1034.9 hPa | - | - | - | - |
| 1777550982 | 13.33° C | 61% | 1035.1 hPa | - | - | - | - |
| 1777550085 | 13.33° C | 61% | 1035.1 hPa | - | - | - | - |
| 1777549181 | 13.33° C | 62% | 1035.2 hPa | - | - | - | - |
| 1777548281 | 13.89° C | 63% | 1035.2 hPa | - | - | - | - |
* Rain since midnight (hover to see other rain measurements)
** Current wind speed in m/s (hover to see current wind gust speed)